Time,TemperatureF,DewpointF,PressureIn,WindDirection,WindDirectionDegrees,WindSpeedMPH,WindSpeedGustMPH,Humidity,HourlyPrecipIn,Conditions,Clouds,dailyrainin,SoftwareType,DateUTC
2013-08-10 00:00:00,62.2,59.3,29.18,North,0,0.0,0.0,90,0.00,,,0.09,WUHU216HW,2013-08-10 05:00:00,
2013-08-10 00:04:00,62.2,59.3,29.18,North,0,0.0,0.0,90,0.00,,,0.00,WUHU216HW,2013-08-10 05:04:00,
2013-08-10 00:10:00,62.2,59.3,29.18,North,0,0.0,0.0,90,0.00,,,0.00,WUHU216HW,2013-08-10 05:10:00,
2013-08-10 00:15:00,62.2,59.3,29.18,North,0,0.0,0.0,90,0.00,,,0.00,WUHU216HW,2013-08-10 05:15:00,
2013-08-10 07:49:00,72.5,67.3,29.22,North,0,0.0,0.0,84,0.00,,,0.00,WUHU216HW,2013-08-10 12:49:00,
2013-08-10 07:54:00,72.8,67.0,29.22,North,0,0.0,0.0,82,0.00,,,0.00,WUHU216HW,2013-08-10 12:54:00,
2013-08-10 07:59:00,73.2,66.7,29.22,North,0,0.0,0.8,80,0.00,,,0.00,WUHU216HW,2013-08-10 12:59:00,
2013-08-10 08:04:00,73.0,66.1,29.22,NNE,23,0.0,0.8,79,0.00,,,0.00,WUHU216HW,2013-08-10 13:04:00,
2013-08-10 08:09:00,72.8,66.0,29.22,NNE,23,0.0,0.0,79,0.00,,,0.00,WUHU216HW,2013-08-10 13:09:00,
2013-08-10 08:14:00,72.6,65.8,29.22,NNE,23,0.0,0.0,79,0.00,,,0.00,WUHU216HW,2013-08-10 13:14:00,
2013-08-10 08:19:00,72.3,65.4,29.22,NNE,23,2.6,2.6,79,0.00,,,0.00,WUHU216HW,2013-08-10 13:19:00,
2013-08-10 08:24:00,72.3,65.4,29.22,NNE,23,0.0,2.6,79,0.00,,,0.00,WUHU216HW,2013-08-10 13:24:00,
2013-08-10 08:29:00,72.3,65.4,29.22,NNE,23,5.5,5.5,79,0.00,,,0.00,WUHU216HW,2013-08-10 13:29:00,
2013-08-10 08:34:00,72.5,64.8,29.23,NNE,23,0.0,5.5,77,0.00,,,0.00,WUHU216HW,2013-08-10 13:34:00,
2013-08-10 08:40:00,72.6,64.3,29.22,NE,45,2.2,2.2,75,0.00,,,0.00,WUHU216HW,2013-08-10 13:40:00,
2013-08-10 08:45:00,72.8,64.4,29.22,NE,45,0.0,2.2,75,0.00,,,0.00,WUHU216HW,2013-08-10 13:45:00,
2013-08-10 08:50:00,73.0,64.2,29.23,NE,45,0.0,2.2,74,0.00,,,0.00,WUHU216HW,2013-08-10 13:50:00,
2013-08-10 08:55:00,73.4,63.8,29.23,NE,45,0.6,6.7,72,0.00,,,0.00,WUHU216HW,2013-08-10 13:55:00,
2013-08-10 09:00:00,73.5,64.4,29.23,ENE,68,0.0,6.7,73,0.00,,,0.00,WUHU216HW,2013-08-10 14:00:00,
2013-08-10 09:05:00,73.9,64.3,29.23,NE,45,0.0,5.8,72,0.00,,,0.00,WUHU216HW,2013-08-10 14:05:00,
2013-08-10 09:10:00,74.3,64.7,29.23,NE,45,1.1,5.8,72,0.02,,,0.02,WUHU216HW,2013-08-10 14:10:00,
2013-08-10 09:15:00,74.8,64.8,29.24,NE,45,4.2,4.2,71,0.02,,,0.02,WUHU216HW,2013-08-10 14:15:00,
2013-08-10 09:20:00,75.0,64.9,29.24,NE,45,0.0,4.2,71,0.02,,,0.02,WUHU216HW,2013-08-10 14:20:00,
2013-08-10 09:25:00,75.3,64.4,29.24,NE,45,6.4,6.4,69,0.02,,,0.02,WUHU216HW,2013-08-10 14:25:00,
2013-08-10 09:30:00,75.5,64.2,29.24,NNE,23,0.0,6.4,68,0.02,,,0.02,WUHU216HW,2013-08-10 14:30:00,
2013-08-10 09:35:00,75.7,64.4,29.24,ENE,68,0.4,6.4,68,0.02,,,0.02,WUHU216HW,2013-08-10 14:35:00,
2013-08-10 09:40:00,75.7,64.4,29.24,ENE,68,0.0,5.1,68,0.02,,,0.02,WUHU216HW,2013-08-10 14:40:00,
2013-08-10 09:46:00,76.1,64.7,29.25,NE,45,0.0,5.1,68,0.02,,,0.02,WUHU216HW,2013-08-10 14:46:00,
2013-08-10 09:51:00,76.6,64.8,29.25,NNE,23,6.2,7.3,67,0.02,,,0.02,WUHU216HW,2013-08-10 14:51:00,
2013-08-10 09:56:00,77.0,65.2,29.24,NNE,23,0.0,7.3,67,0.02,,,0.02,WUHU216HW,2013-08-10 14:56:00,
2013-08-10 10:01:00,77.1,64.9,29.24,NNE,23,0.0,6.2,66,0.02,,,0.02,WUHU216HW,2013-08-10 15:01:00,
2013-08-10 10:06:00,77.5,64.8,29.24,NE,45,0.0,0.0,65,0.00,,,0.02,WUHU216HW,2013-08-10 15:06:00,
2013-08-10 10:11:00,77.7,64.9,29.24,NE,45,0.0,2.2,65,0.00,,,0.02,WUHU216HW,2013-08-10 15:11:00,
2013-08-10 10:16:00,77.9,65.1,29.24,NE,45,0.0,2.2,65,0.00,,,0.02,WUHU216HW,2013-08-10 15:16:00,
2013-08-10 10:21:00,77.7,64.9,29.25,ENE,68,0.0,7.1,65,0.00,,,0.02,WUHU216HW,2013-08-10 15:21:00,
2013-08-10 10:26:00,78.0,65.3,29.25,North,0,0.0,7.1,65,0.00,,,0.02,WUHU216HW,2013-08-10 15:26:00,
2013-08-10 10:31:00,78.2,65.4,29.24,NE,45,5.8,5.8,65,0.00,,,0.02,WUHU216HW,2013-08-10 15:31:00,
2013-08-10 10:36:00,78.6,66.2,29.25,NNE,23,8.5,8.5,66,0.00,,,0.02,WUHU216HW,2013-08-10 15:36:00,
2013-08-10 10:41:00,78.6,65.8,29.25,ENE,68,8.5,8.5,65,0.00,,,0.02,WUHU216HW,2013-08-10 15:41:00,
2013-08-10 10:46:00,78.6,65.4,29.25,ENE,68,0.0,8.5,64,0.00,,,0.02,WUHU216HW,2013-08-10 15:46:00,
2013-08-10 10:51:00,78.9,66.1,29.25,NNE,23,0.0,1.7,65,0.00,,,0.02,WUHU216HW,2013-08-10 15:51:00,
2013-08-10 10:56:00,79.5,66.7,29.25,NNE,23,0.0,1.7,65,0.00,,,0.02,WUHU216HW,2013-08-10 15:56:00,
2013-08-10 11:01:00,79.8,66.5,29.25,NNE,23,0.0,0.0,64,0.00,,,0.02,WUHU216HW,2013-08-10 16:01:00,
2013-08-10 11:06:00,80.7,67.4,29.25,NNE,23,0.8,3.8,64,0.00,,,0.02,WUHU216HW,2013-08-10 16:06:00,
2013-08-10 11:11:00,80.9,67.1,29.25,NNE,23,0.0,5.5,63,0.00,,,0.02,WUHU216HW,2013-08-10 16:11:00,
2013-08-10 11:16:00,81.1,67.0,29.25,NNE,23,6.2,6.2,62,0.00,,,0.02,WUHU216HW,2013-08-10 16:16:00,
2013-08-10 11:21:00,81.5,67.1,29.25,NNE,23,0.0,6.2,62,0.00,,,0.02,WUHU216HW,2013-08-10 16:21:00,
2013-08-10 11:26:00,82.0,67.6,29.25,NNE,23,0.0,3.3,62,0.00,,,0.02,WUHU216HW,2013-08-10 16:26:00,
2013-08-10 11:31:00,82.2,67.3,29.25,NE,45,0.0,2.2,61,0.00,,,0.02,WUHU216HW,2013-08-10 16:31:00,
2013-08-10 11:36:00,82.2,66.4,29.26,East,90,0.0,6.9,59,0.00,,,0.02,WUHU216HW,2013-08-10 16:36:00,
2013-08-10 11:41:00,82.0,66.2,29.26,NE,45,0.0,6.9,59,0.00,,,0.02,WUHU216HW,2013-08-10 16:41:00,
2013-08-10 11:46:00,82.5,66.9,29.26,NE,45,0.0,6.2,59,0.00,,,0.02,WUHU216HW,2013-08-10 16:46:00,
2013-08-10 11:51:00,82.9,67.6,29.26,NE,45,4.4,4.4,60,0.00,,,0.02,WUHU216HW,2013-08-10 16:51:00,
2013-08-10 11:56:00,83.6,68.3,29.26,NE,45,2.4,4.4,60,0.00,,,0.02,WUHU216HW,2013-08-10 16:56:00,
2013-08-10 12:01:00,84.0,68.1,29.25,North,0,5.3,5.3,59,0.00,,,0.02,WUHU216HW,2013-08-10 17:01:00,
2013-08-10 12:07:00,83.3,66.9,29.25,NE,45,6.0,6.0,58,0.00,,,0.02,WUHU216HW,2013-08-10 17:07:00,
2013-08-10 12:12:00,83.3,66.4,29.25,ENE,68,0.0,6.0,57,0.00,,,0.02,WUHU216HW,2013-08-10 17:12:00,
2013-08-10 12:17:00,83.6,67.8,29.25,NE,45,0.0,6.0,59,0.00,,,0.02,WUHU216HW,2013-08-10 17:17:00,
2013-08-10 12:22:00,84.3,67.4,29.25,ENE,68,0.0,2.9,57,0.00,,,0.02,WUHU216HW,2013-08-10 17:22:00,
2013-08-10 12:27:00,84.7,67.8,29.25,ENE,68,0.0,0.0,57,0.00,,,0.02,WUHU216HW,2013-08-10 17:27:00,
2013-08-10 12:32:00,84.5,66.6,29.25,ENE,68,0.0,0.0,55,0.00,,,0.02,WUHU216HW,2013-08-10 17:32:00,
2013-08-10 12:37:00,84.7,68.3,29.25,ENE,68,0.0,0.0,58,0.00,,,0.02,WUHU216HW,2013-08-10 17:37:00,
2013-08-10 12:42:00,85.2,67.2,29.25,ENE,68,0.0,0.0,55,0.00,,,0.02,WUHU216HW,2013-08-10 17:42:00,
2013-08-10 12:47:00,85.1,67.6,29.25,ENE,68,0.0,0.0,56,0.00,,,0.02,WUHU216HW,2013-08-10 17:47:00,
2013-08-10 12:52:00,84.9,67.9,29.25,NNE,23,1.7,1.7,57,0.00,,,0.02,WUHU216HW,2013-08-10 17:52:00,
2013-08-10 12:57:00,83.8,67.4,29.24,NNE,23,1.1,7.1,58,0.00,,,0.02,WUHU216HW,2013-08-10 17:57:00,
2013-08-10 13:02:00,84.0,68.1,29.24,NNE,23,0.0,7.1,59,0.00,,,0.02,WUHU216HW,2013-08-10 18:02:00,
2013-08-10 13:07:00,84.2,67.8,29.24,North,0,0.0,4.6,58,0.00,,,0.02,WUHU216HW,2013-08-10 18:07:00,
2013-08-10 13:12:00,84.5,68.1,29.24,North,0,0.2,4.6,58,0.00,,,0.02,WUHU216HW,2013-08-10 18:12:00,
2013-08-10 13:17:00,84.9,67.4,29.24,NE,45,2.6,2.6,56,0.00,,,0.02,WUHU216HW,2013-08-10 18:17:00,
2013-08-10 13:22:00,84.3,65.9,29.24,ENE,68,0.0,2.6,54,0.00,,,0.02,WUHU216HW,2013-08-10 18:22:00,
2013-08-10 13:27:00,84.3,66.9,29.23,ENE,68,1.3,4.0,56,0.00,,,0.02,WUHU216HW,2013-08-10 18:27:00,
2013-08-10 13:32:00,84.0,67.1,29.23,ENE,68,3.3,4.0,57,0.00,,,0.02,WUHU216HW,2013-08-10 18:32:00,
2013-08-10 13:37:00,84.0,66.1,29.23,East,90,0.0,3.3,55,0.00,,,0.02,WUHU216HW,2013-08-10 18:37:00,
2013-08-10 13:42:00,84.5,66.6,29.23,East,90,0.0,4.4,55,0.00,,,0.02,WUHU216HW,2013-08-10 18:42:00,
2013-08-10 13:47:00,85.2,66.7,29.23,NE,45,6.4,6.4,54,0.00,,,0.02,WUHU216HW,2013-08-10 18:47:00,
2013-08-10 13:52:00,85.8,67.7,29.24,NNE,23,4.2,6.4,55,0.00,,,0.02,WUHU216HW,2013-08-10 18:52:00,
2013-08-10 13:53:00,85.8,67.7,29.24,NNE,23,4.2,6.4,55,0.00,,,0.02,WUHU216HW,2013-08-10 18:53:00,
2013-08-10 13:58:00,85.6,67.5,29.23,NNE,23,3.3,4.2,55,0.00,,,0.02,WUHU216HW,2013-08-10 18:58:00,
2013-08-10 14:03:00,84.7,67.8,29.24,NNE,23,0.0,3.3,57,0.00,,,0.02,WUHU216HW,2013-08-10 19:03:00,
2013-08-10 14:08:00,84.7,66.7,29.23,NNE,23,0.0,0.0,55,0.00,,,0.02,WUHU216HW,2013-08-10 19:08:00,
2013-08-10 14:13:00,85.6,67.0,29.24,NNE,23,6.4,6.4,54,0.00,,,0.02,WUHU216HW,2013-08-10 19:13:00,
2013-08-10 14:18:00,85.2,66.4,29.23,NE,45,0.0,6.4,54,0.00,,,0.02,WUHU216HW,2013-08-10 19:18:00,
2013-08-10 14:23:00,85.1,67.6,29.22,NE,45,0.0,1.1,56,0.00,,,0.02,WUHU216HW,2013-08-10 19:23:00,
2013-08-10 14:28:00,85.1,67.1,29.22,ENE,68,0.0,0.0,55,0.00,,,0.02,WUHU216HW,2013-08-10 19:28:00,
2013-08-10 14:33:00,84.9,66.4,29.22,ENE,68,0.0,0.0,54,0.00,,,0.02,WUHU216HW,2013-08-10 19:33:00,
2013-08-10 14:38:00,85.1,66.0,29.22,ENE,68,0.0,0.0,53,0.00,,,0.02,WUHU216HW,2013-08-10 19:38:00,
2013-08-10 14:43:00,83.4,65.0,29.22,ENE,68,0.0,0.0,54,0.00,,,0.02,WUHU216HW,2013-08-10 19:43:00,
2013-08-10 14:48:00,83.4,65.7,29.22,ENE,68,0.0,0.0,54,0.00,,,0.02,WUHU216HW,2013-08-10 19:48:00,
2013-08-10 14:53:00,85.1,66.5,29.22,ENE,68,0.0,0.0,54,0.00,,,0.02,WUHU216HW,2013-08-10 19:53:00,
2013-08-10 14:58:00,85.6,67.0,29.22,ENE,68,0.0,0.0,54,0.00,,,0.02,WUHU216HW,2013-08-10 19:58:00,
2013-08-10 15:03:00,85.8,66.1,29.22,ENE,68,0.0,0.6,52,0.00,,,0.02,WUHU216HW,2013-08-10 20:03:00,
2013-08-10 15:08:00,85.6,66.0,29.22,ENE,68,5.3,5.3,52,0.00,,,0.02,WUHU216HW,2013-08-10 20:08:00,
2013-08-10 15:13:00,85.6,66.5,29.21,ENE,68,0.0,5.3,53,0.00,,,0.02,WUHU216HW,2013-08-10 20:13:00,
2013-08-10 15:18:00,86.5,66.3,29.21,WSW,248,0.0,5.3,51,0.00,,,0.02,WUHU216HW,2013-08-10 20:18:00,
2013-08-10 15:23:00,86.5,66.3,29.21,NW,315,0.0,2.2,51,0.00,,,0.02,WUHU216HW,2013-08-10 20:23:00,
2013-08-10 15:28:00,86.7,66.9,29.21,ENE,68,0.0,0.4,52,0.00,,,0.02,WUHU216HW,2013-08-10 20:28:00,
2013-08-10 15:33:00,87.0,66.4,29.21,ENE,68,0.0,0.4,51,0.00,,,0.02,WUHU216HW,2013-08-10 20:33:00,
2013-08-10 15:38:00,87.4,65.9,29.20,ENE,68,0.0,0.0,49,0.00,,,0.02,WUHU216HW,2013-08-10 20:38:00,
2013-08-10 15:43:00,87.2,66.4,29.21,ENE,68,0.0,0.0,50,0.00,,,0.02,WUHU216HW,2013-08-10 20:43:00,
2013-08-10 15:48:00,87.6,66.1,29.20,ENE,68,0.0,0.0,48,0.00,,,0.02,WUHU216HW,2013-08-10 20:48:00,
2013-08-10 15:54:00,88.3,66.7,29.20,ENE,68,0.0,0.0,49,0.00,,,0.02,WUHU216HW,2013-08-10 20:54:00,
2013-08-10 15:59:00,87.9,66.4,29.20,WSW,248,0.0,0.0,49,0.00,,,0.02,WUHU216HW,2013-08-10 20:59:00,
2013-08-10 16:04:00,87.0,66.4,29.20,WSW,248,2.0,2.0,50,0.00,,,0.02,WUHU216HW,2013-08-10 21:04:00,
2013-08-10 16:09:00,86.7,65.9,29.20,WSW,248,0.0,2.0,50,0.00,,,0.02,WUHU216HW,2013-08-10 21:09:00,
2013-08-10 16:14:00,86.5,65.1,29.20,NW,315,0.0,2.0,49,0.00,,,0.02,WUHU216HW,2013-08-10 21:14:00,
2013-08-10 16:19:00,86.3,66.6,29.20,ENE,68,0.0,0.0,52,0.00,,,0.02,WUHU216HW,2013-08-10 21:19:00,
2013-08-10 16:24:00,86.3,65.6,29.19,ENE,68,0.0,0.0,50,0.00,,,0.02,WUHU216HW,2013-08-10 21:24:00,
2013-08-10 16:29:00,86.3,65.6,29.19,ENE,68,0.0,0.0,50,0.00,,,0.02,WUHU216HW,2013-08-10 21:29:00,
2013-08-10 16:34:00,86.3,64.9,29.19,ENE,68,0.0,0.0,49,0.00,,,0.02,WUHU216HW,2013-08-10 21:34:00,
2013-08-10 16:39:00,86.0,64.0,29.19,ENE,68,0.0,0.0,48,0.00,,,0.02,WUHU216HW,2013-08-10 21:39:00,
2013-08-10 16:44:00,85.8,64.5,29.19,ENE,68,0.0,0.4,49,0.00,,,0.02,WUHU216HW,2013-08-10 21:44:00,
2013-08-10 16:49:00,85.8,65.1,29.19,ENE,68,3.3,3.3,50,0.00,,,0.02,WUHU216HW,2013-08-10 21:49:00,
2013-08-10 16:54:00,85.6,64.3,29.19,ENE,68,0.0,3.3,49,0.00,,,0.02,WUHU216HW,2013-08-10 21:54:00,
2013-08-10 16:59:00,85.6,64.3,29.19,ENE,68,0.0,0.0,49,0.00,,,0.02,WUHU216HW,2013-08-10 21:59:00,
2013-08-10 17:04:00,85.8,65.1,29.19,ENE,68,0.0,0.0,50,0.00,,,0.02,WUHU216HW,2013-08-10 22:04:00,
2013-08-10 17:09:00,85.8,64.5,29.19,ENE,68,0.0,0.0,49,0.00,,,0.02,WUHU216HW,2013-08-10 22:09:00,
2013-08-10 17:14:00,85.8,64.5,29.19,ENE,68,0.0,0.0,49,0.00,,,0.02,WUHU216HW,2013-08-10 22:14:00,
2013-08-10 17:19:00,85.6,64.9,29.18,WSW,248,0.0,0.0,50,0.00,,,0.02,WUHU216HW,2013-08-10 22:19:00,
2013-08-10 17:24:00,85.2,65.1,29.18,WSW,248,0.0,0.0,51,0.00,,,0.02,WUHU216HW,2013-08-10 22:24:00,
2013-08-10 17:29:00,84.5,64.5,29.18,WSW,248,0.0,0.0,51,0.00,,,0.02,WUHU216HW,2013-08-10 22:29:00,
2013-08-10 17:34:00,84.3,64.3,29.18,WSW,248,0.0,0.0,51,0.00,,,0.02,WUHU216HW,2013-08-10 22:34:00,
2013-08-10 17:39:00,84.0,64.5,29.18,WSW,248,0.0,0.0,52,0.00,,,0.02,WUHU216HW,2013-08-10 22:39:00,
2013-08-10 17:44:00,83.8,63.3,29.18,WSW,248,0.0,0.0,50,0.00,,,0.02,WUHU216HW,2013-08-10 22:44:00,
2013-08-10 17:49:00,83.8,64.3,29.18,WSW,248,0.0,0.0,52,0.00,,,0.02,WUHU216HW,2013-08-10 22:49:00,
2013-08-10 17:54:00,83.8,64.3,29.18,WSW,248,0.0,0.0,52,0.00,,,0.02,WUHU216HW,2013-08-10 22:54:00,
2013-08-10 17:59:00,83.4,64.0,29.18,WSW,248,0.0,0.0,52,0.00,,,0.02,WUHU216HW,2013-08-10 22:59:00,
2013-08-10 18:04:00,83.1,64.1,29.18,WSW,248,0.0,0.0,53,0.00,,,0.02,WUHU216HW,2013-08-10 23:04:00,
2013-08-10 18:09:00,83.1,64.6,29.17,WSW,248,0.0,0.0,54,0.00,,,0.02,WUHU216HW,2013-08-10 23:09:00,
2013-08-10 18:14:00,82.7,64.3,29.17,WSW,248,0.0,0.0,54,0.00,,,0.02,WUHU216HW,2013-08-10 23:14:00,
2013-08-10 18:20:00,82.5,63.6,29.17,WSW,248,0.0,0.0,53,0.00,,,0.02,WUHU216HW,2013-08-10 23:20:00,
2013-08-10 18:25:00,82.5,64.6,29.16,WSW,248,0.0,0.0,55,0.00,,,0.02,WUHU216HW,2013-08-10 23:25:00,
2013-08-10 18:30:00,82.5,64.1,29.16,WSW,248,0.0,0.0,54,0.00,,,0.02,WUHU216HW,2013-08-10 23:30:00,
2013-08-10 18:35:00,82.4,64.4,29.16,WSW,248,0.0,0.0,55,0.00,,,0.02,WUHU216HW,2013-08-10 23:35:00,
2013-08-10 18:41:00,82.0,63.6,29.16,WSW,248,0.0,0.0,54,0.00,,,0.02,WUHU216HW,2013-08-10 23:41:00,
2013-08-10 18:46:00,81.8,64.0,29.16,WSW,248,0.0,0.0,55,0.00,,,0.02,WUHU216HW,2013-08-10 23:46:00,
2013-08-10 18:51:00,81.3,63.5,29.16,NE,45,0.0,0.0,55,0.00,,,0.02,WUHU216HW,2013-08-10 23:51:00,
2013-08-10 18:56:00,80.9,63.7,29.16,NE,45,0.0,0.0,56,0.00,,,0.02,WUHU216HW,2013-08-10 23:56:00,
2013-08-10 19:01:00,80.4,63.7,29.16,NE,45,0.0,0.0,57,0.00,,,0.02,WUHU216HW,2013-08-11 00:01:00,
2013-08-10 19:06:00,79.5,63.4,29.16,NE,45,0.0,0.0,58,0.00,,,0.02,WUHU216HW,2013-08-11 00:06:00,
2013-08-10 19:11:00,79.1,63.1,29.16,NE,45,0.0,0.0,58,0.00,,,0.02,WUHU216HW,2013-08-11 00:11:00,
2013-08-10 19:16:00,78.8,63.3,29.16,NE,45,0.0,0.0,59,0.00,,,0.02,WUHU216HW,2013-08-11 00:16:00,
2013-08-10 19:21:00,78.4,63.9,29.16,NE,45,0.0,0.0,61,0.00,,,0.02,WUHU216HW,2013-08-11 00:21:00,
2013-08-10 19:26:00,77.9,63.8,29.16,NE,45,0.0,0.0,62,0.00,,,0.02,WUHU216HW,2013-08-11 00:26:00,
2013-08-10 19:31:00,77.5,63.4,29.16,NE,45,0.0,0.0,62,0.00,,,0.02,WUHU216HW,2013-08-11 00:31:00,
2013-08-10 19:36:00,77.1,63.5,29.16,NE,45,0.0,0.0,63,0.00,,,0.02,WUHU216HW,2013-08-11 00:36:00,
2013-08-10 19:41:00,76.8,63.6,29.16,NE,45,0.0,0.0,64,0.00,,,0.02,WUHU216HW,2013-08-11 00:41:00,
2013-08-10 19:46:00,76.2,63.6,29.16,NE,45,0.0,0.0,65,0.00,,,0.02,WUHU216HW,2013-08-11 00:46:00,
2013-08-10 19:51:00,75.9,63.7,29.16,NE,45,0.0,0.0,66,0.00,,,0.02,WUHU216HW,2013-08-11 00:51:00,
2013-08-10 19:56:00,75.5,63.8,29.16,NE,45,0.0,0.0,67,0.00,,,0.02,WUHU216HW,2013-08-11 00:56:00,
2013-08-10 20:01:00,75.0,63.2,29.16,NE,45,0.0,0.0,67,0.00,,,0.02,WUHU216HW,2013-08-11 01:01:00,
2013-08-10 20:06:00,74.6,63.3,29.16,NE,45,0.0,0.0,68,0.00,,,0.02,WUHU216HW,2013-08-11 01:06:00,
2013-08-10 20:11:00,74.1,62.8,29.16,NE,45,0.0,0.0,68,0.00,,,0.02,WUHU216HW,2013-08-11 01:11:00,
2013-08-10 20:16:00,73.5,62.8,29.16,NE,45,0.0,0.0,69,0.00,,,0.02,WUHU216HW,2013-08-11 01:16:00,
2013-08-10 20:21:00,73.2,62.9,29.16,NE,45,0.0,0.0,70,0.00,,,0.02,WUHU216HW,2013-08-11 01:21:00,
2013-08-10 20:26:00,72.6,62.7,29.16,NE,45,0.0,0.0,71,0.00,,,0.02,WUHU216HW,2013-08-11 01:26:00,
2013-08-10 20:31:00,72.1,62.6,29.16,NE,45,0.0,0.0,72,0.00,,,0.02,WUHU216HW,2013-08-11 01:31:00,
2013-08-10 20:36:00,71.7,62.2,29.17,NE,45,0.0,0.0,72,0.00,,,0.02,WUHU216HW,2013-08-11 01:36:00,
2013-08-10 20:41:00,71.4,61.7,29.17,NE,45,0.0,0.0,72,0.00,,,0.02,WUHU216HW,2013-08-11 01:41:00,
2013-08-10 20:47:00,70.8,61.7,29.17,NE,45,0.0,0.0,73,0.00,,,0.02,WUHU216HW,2013-08-11 01:47:00,
2013-08-10 20:52:00,70.3,61.5,29.17,NE,45,0.0,0.0,74,0.00,,,0.02,WUHU216HW,2013-08-11 01:52:00,
2013-08-10 20:57:00,69.8,61.6,29.17,NE,45,0.0,0.0,75,0.00,,,0.02,WUHU216HW,2013-08-11 01:57:00,
2013-08-10 21:02:00,69.4,61.4,29.17,NE,45,0.0,0.0,76,0.00,,,0.02,WUHU216HW,2013-08-11 02:02:00,
2013-08-10 21:07:00,69.0,61.5,29.17,NE,45,0.0,0.0,77,0.00,,,0.02,WUHU216HW,2013-08-11 02:07:00,
2013-08-10 21:12:00,68.9,61.3,29.18,NE,45,0.0,0.0,77,0.00,,,0.02,WUHU216HW,2013-08-11 02:12:00,
2013-08-10 21:17:00,68.5,61.0,29.18,NE,45,0.0,0.0,77,0.00,,,0.02,WUHU216HW,2013-08-11 02:17:00,
2013-08-10 21:22:00,68.1,60.7,29.18,NE,45,0.0,0.0,77,0.00,,,0.02,WUHU216HW,2013-08-11 02:22:00,
2013-08-10 21:27:00,67.8,60.7,29.18,NE,45,0.0,0.0,78,0.00,,,0.02,WUHU216HW,2013-08-11 02:27:00,
2013-08-10 21:32:00,67.6,60.9,29.19,NE,45,0.0,0.0,79,0.00,,,0.02,WUHU216HW,2013-08-11 02:32:00,
2013-08-10 21:37:00,67.4,60.7,29.19,NE,45,0.0,0.0,79,0.00,,,0.02,WUHU216HW,2013-08-11 02:37:00,
2013-08-10 21:42:00,67.1,60.8,29.19,NE,45,0.0,0.0,80,0.00,,,0.02,WUHU216HW,2013-08-11 02:42:00,
2013-08-10 21:47:00,66.9,60.6,29.19,NE,45,0.0,0.0,80,0.00,,,0.02,WUHU216HW,2013-08-11 02:47:00,
2013-08-10 21:52:00,66.9,61.2,29.19,NE,45,0.0,0.0,82,0.00,,,0.02,WUHU216HW,2013-08-11 02:52:00,
2013-08-10 21:57:00,66.9,61.2,29.19,NE,45,0.0,0.0,82,0.00,,,0.02,WUHU216HW,2013-08-11 02:57:00,
2013-08-10 22:02:00,66.9,61.2,29.19,NE,45,0.0,0.0,82,0.00,,,0.02,WUHU216HW,2013-08-11 03:02:00,
2013-08-10 22:07:00,67.1,61.4,29.19,NE,45,0.0,0.0,82,0.00,,,0.02,WUHU216HW,2013-08-11 03:07:00,
2013-08-10 22:12:00,67.1,61.1,29.19,NE,45,0.0,0.0,81,0.00,,,0.02,WUHU216HW,2013-08-11 03:12:00,
2013-08-10 22:18:00,67.1,61.1,29.19,NE,45,0.0,0.0,81,0.00,,,0.02,WUHU216HW,2013-08-11 03:18:00,
2013-08-10 22:23:00,66.7,60.4,29.19,NE,45,0.0,0.0,80,0.00,,,0.02,WUHU216HW,2013-08-11 03:23:00,
2013-08-10 22:28:00,66.7,60.7,29.20,NE,45,0.0,0.0,81,0.00,,,0.02,WUHU216HW,2013-08-11 03:28:00,
2013-08-10 22:33:00,66.5,60.2,29.20,NE,45,0.0,0.0,80,0.00,,,0.02,WUHU216HW,2013-08-11 03:33:00,
2013-08-10 22:38:00,66.2,59.9,29.20,NE,45,0.0,0.0,80,0.00,,,0.02,WUHU216HW,2013-08-11 03:38:00,
2013-08-10 22:43:00,66.0,60.0,29.20,NE,45,0.0,0.0,81,0.00,,,0.02,WUHU216HW,2013-08-11 03:43:00,
2013-08-10 22:48:00,65.8,59.8,29.20,NE,45,0.0,0.0,81,0.00,,,0.02,WUHU216HW,2013-08-11 03:48:00,
2013-08-10 22:53:00,65.4,59.5,29.20,NE,45,0.0,0.0,81,0.00,,,0.02,WUHU216HW,2013-08-11 03:53:00,
2013-08-10 22:59:00,65.3,59.1,29.20,NE,45,0.0,0.0,81,0.00,,,0.02,WUHU216HW,2013-08-11 03:59:00,
2013-08-10 23:01:00,65.1,59.1,29.20,NE,45,0.0,0.0,81,0.00,,,0.02,WUHU216HW,2013-08-11 04:01:00,
2013-08-10 23:03:00,65.1,59.1,29.20,NE,45,0.0,0.0,81,0.00,,,0.02,WUHU216HW,2013-08-11 04:03:00,
2013-08-10 23:04:00,65.1,59.4,29.20,NE,45,0.0,0.0,82,0.00,,,0.02,WUHU216HW,2013-08-11 04:04:00,
2013-08-10 23:09:00,64.9,59.6,29.20,NE,45,0.0,0.0,83,0.00,,,0.02,WUHU216HW,2013-08-11 04:09:00,
2013-08-10 23:14:00,64.9,59.6,29.20,NE,45,0.0,0.0,82,0.00,,,0.02,WUHU216HW,2013-08-11 04:14:00,
2013-08-10 23:19:00,64.7,59.1,29.20,NE,45,0.0,0.0,82,0.00,,,0.02,WUHU216HW,2013-08-11 04:19:00,
2013-08-10 23:24:00,64.5,58.9,29.20,NE,45,0.0,0.0,82,0.00,,,0.02,WUHU216HW,2013-08-11 04:24:00,
2013-08-10 23:29:00,64.4,58.9,29.20,NE,45,0.0,0.0,83,0.00,,,0.02,WUHU216HW,2013-08-11 04:29:00,
2013-08-10 23:34:00,64.2,58.9,29.20,NE,45,0.0,0.0,83,0.00,,,0.02,WUHU216HW,2013-08-11 04:34:00,
2013-08-10 23:39:00,64.0,58.7,29.20,NE,45,0.0,0.0,83,0.00,,,0.02,WUHU216HW,2013-08-11 04:39:00,
2013-08-10 23:44:00,63.6,58.5,29.20,NE,45,0.0,0.0,83,0.00,,,0.02,WUHU216HW,2013-08-11 04:44:00,
2013-08-10 23:49:00,63.6,58.4,29.20,NE,45,0.0,0.0,83,0.00,,,0.02,WUHU216HW,2013-08-11 04:49:00,
2013-08-10 23:54:00,63.3,58.0,29.20,NE,45,0.0,0.0,83,0.00,,,0.02,WUHU216HW,2013-08-11 04:54:00,
2013-08-10 23:59:00,63.1,58.2,29.20,NE,45,0.0,0.0,84,0.00,,,0.02,WUHU216HW,2013-08-11 04:59:00,